HKE711 WABB-PTRO

Flight info

Callsign HKE711
Flight time 1h 22m
Altitude 34000
Route FILM1F FILMO ROR
Aircraft A20N/M-SDE2E3FGHIJ1RWXY/LB1

Departure

Time 2026-05-07 11:49
Airport Frans Kaisiepo Airport (WABB)

Arrival

Time 2026-05-07 13:12
Airport Roman Tmetuchl International Airport (PTRO)
Time Latitude Longitude Altitude Speed Heading
2026-05-07 11:23 -1.19167 136.10715 46 ft 0 kts 199°
2026-05-07 11:38 -1.19166 136.10715 46 ft 1 kts 199°
2026-05-07 11:38 -1.19152 136.10719 46 ft 2 kts 213°
2026-05-07 11:38 -1.19140 136.10730 46 ft 2 kts 232°
2026-05-07 11:39 -1.19133 136.10742 46 ft 2 kts 253°
2026-05-07 11:39 -1.19131 136.10757 46 ft 2 kts 274°
2026-05-07 11:39 -1.19132 136.10767 46 ft 0 kts 287°
2026-05-07 11:39 -1.19135 136.10774 46 ft 0 kts 289°
2026-05-07 11:44 -1.19134 136.10771 46 ft 1 kts 289°
2026-05-07 11:44 -1.19121 136.10742 46 ft 7 kts 316°
2026-05-07 11:44 -1.19051 136.10748 46 ft 11 kts 18°
2026-05-07 11:44 -1.19015 136.10808 46 ft 13 kts 108°
2026-05-07 11:45 -1.19051 136.10907 46 ft 16 kts 107°
2026-05-07 11:45 -1.19090 136.11023 46 ft 18 kts 109°
2026-05-07 11:45 -1.19133 136.11145 46 ft 18 kts 109°
2026-05-07 11:45 -1.19174 136.11266 46 ft 18 kts 108°
2026-05-07 11:46 -1.19229 136.11421 45 ft 28 kts 109°
2026-05-07 11:46 -1.19296 136.11614 44 ft 29 kts 108°
2026-05-07 11:46 -1.19362 136.11801 42 ft 28 kts 109°
2026-05-07 11:46 -1.19417 136.11958 41 ft 27 kts 108°
2026-05-07 11:47 -1.19479 136.12135 38 ft 27 kts 109°
2026-05-07 11:47 -1.19484 136.12256 37 ft 12 kts 78°
2026-05-07 11:47 -1.19526 136.12289 37 ft 9 kts 231°
2026-05-07 11:47 -1.19526 136.12270 37 ft 0 kts 290°
2026-05-07 11:48 -1.19482 136.12146 38 ft 52 kts 289°
2026-05-07 11:49 -1.19288 136.11587 45 ft 116 kts 290°
2026-05-07 11:49 -1.18958 136.10643 63 ft 166 kts 289°
2026-05-07 11:49 -1.18567 136.09525 511 ft 173 kts 290°
2026-05-07 11:49 -1.18177 136.08391 1103 ft 177 kts 290°
2026-05-07 11:50 -1.17777 136.07228 1741 ft 178 kts 290°
2026-05-07 11:50 -1.17369 136.06039 2162 ft 189 kts 289°
2026-05-07 11:50 -1.16924 136.04742 2456 ft 209 kts 289°
2026-05-07 11:50 -1.16425 136.03288 2432 ft 232 kts 289°
2026-05-07 11:51 -1.15945 136.01671 2479 ft 254 kts 277°
2026-05-07 11:51 -1.16224 135.99934 2479 ft 260 kts 242°
2026-05-07 11:51 -1.17358 135.98505 2498 ft 263 kts 219°
2026-05-07 11:51 -1.19027 135.97749 2506 ft 267 kts 187°
2026-05-07 11:52 -1.20875 135.98016 2904 ft 277 kts 153°
2026-05-07 11:52 -1.22282 135.99175 3816 ft 272 kts 124°
2026-05-07 11:52 -1.22932 136.00922 4623 ft 271 kts 92°
2026-05-07 11:52 -1.22572 136.02751 5339 ft 274 kts 60°
2026-05-07 11:53 -1.21472 136.04315 6060 ft 277 kts 52°
2026-05-07 11:53 -1.20333 136.05801 6702 ft 284 kts 52°
2026-05-07 11:53 -1.19064 136.07332 7409 ft 287 kts 39°
2026-05-07 11:53 -1.17329 136.08225 8132 ft 285 kts 11°
2026-05-07 11:54 -1.15376 136.08250 8852 ft 284 kts 350°
2026-05-07 11:54 -1.13386 136.07899 9477 ft 289 kts 349°
2026-05-07 11:54 -1.11387 136.07556 10088 ft 294 kts 350°
2026-05-07 11:54 -1.09364 136.07219 10559 ft 303 kts 350°
2026-05-07 11:55 -1.07238 136.06873 10837 ft 319 kts 350°
2026-05-07 11:55 -1.04983 136.06511 11106 ft 335 kts 351°
2026-05-07 11:55 -1.02631 136.06136 11368 ft 350 kts 351°
2026-05-07 11:55 -1.00185 136.05751 11636 ft 365 kts 351°
2026-05-07 11:56 -0.97663 136.05365 12182 ft 369 kts 351°
2026-05-07 11:56 -0.95322 136.05005 13069 ft 360 kts 351°
2026-05-07 11:56 -0.92857 136.04620 14037 ft 349 kts 351°
2026-05-07 11:56 -0.90509 136.04248 14965 ft 339 kts 351°
2026-05-07 11:57 -0.88261 136.03889 15861 ft 328 kts 351°
2026-05-07 11:57 -0.86021 136.03517 16611 ft 323 kts 350°
2026-05-07 11:57 -0.83781 136.03114 16851 ft 335 kts 350°
2026-05-07 11:57 -0.81437 136.02689 17077 ft 348 kts 350°
2026-05-07 11:58 -0.78987 136.02245 17279 ft 360 kts 350°
2026-05-07 11:58 -0.76462 136.01788 17472 ft 372 kts 350°
2026-05-07 11:58 -0.73872 136.01321 17662 ft 383 kts 350°
2026-05-07 11:58 -0.71214 136.00842 17833 ft 393 kts 350°
2026-05-07 11:59 -0.68471 136.00348 17993 ft 404 kts 350°
2026-05-07 11:59 -0.65741 135.99857 18163 ft 413 kts 350°
2026-05-07 11:59 -0.62954 135.99355 18312 ft 422 kts 350°
2026-05-07 11:59 -0.60020 135.98827 18509 ft 429 kts 350°
2026-05-07 12:00 -0.57040 135.98291 18827 ft 432 kts 350°
2026-05-07 12:00 -0.54066 135.97757 19172 ft 434 kts 350°
2026-05-07 12:00 -0.51080 135.97220 19501 ft 436 kts 350°
2026-05-07 12:00 -0.48085 135.96683 19811 ft 439 kts 350°
2026-05-07 12:01 -0.45056 135.96140 20113 ft 442 kts 350°
2026-05-07 12:01 -0.42001 135.95592 20412 ft 444 kts 350°
2026-05-07 12:01 -0.38945 135.95042 20708 ft 447 kts 350°
2026-05-07 12:01 -0.35853 135.94487 21008 ft 449 kts 350°
2026-05-07 12:02 -0.32797 135.93938 21304 ft 451 kts 350°
2026-05-07 12:02 -0.29688 135.93379 21587 ft 453 kts 351°
2026-05-07 12:02 -0.26574 135.92819 21861 ft 455 kts 351°
2026-05-07 12:02 -0.23411 135.92253 22129 ft 457 kts 351°
2026-05-07 12:03 -0.20259 135.91687 22416 ft 460 kts 350°
2026-05-07 12:03 -0.17116 135.91124 22701 ft 461 kts 350°
2026-05-07 12:03 -0.13945 135.90555 22978 ft 464 kts 350°
2026-05-07 12:03 -0.10741 135.89980 23253 ft 466 kts 350°
2026-05-07 12:04 -0.07527 135.89401 23527 ft 468 kts 351°
2026-05-07 12:04 -0.04309 135.88823 23816 ft 469 kts 351°
2026-05-07 12:04 -0.01096 135.88246 24086 ft 471 kts 350°
2026-05-07 12:04 0.02147 135.87663 24346 ft 473 kts 350°
2026-05-07 12:05 0.05390 135.87083 24603 ft 474 kts 350°
2026-05-07 12:05 0.08683 135.86491 24847 ft 476 kts 350°
2026-05-07 12:05 0.11929 135.85910 25086 ft 478 kts 350°
2026-05-07 12:05 0.15224 135.85321 25321 ft 479 kts 351°
2026-05-07 12:06 0.18524 135.84731 25546 ft 480 kts 351°
2026-05-07 12:06 0.21825 135.84139 25791 ft 481 kts 351°
2026-05-07 12:06 0.25109 135.83551 26110 ft 480 kts 350°
2026-05-07 12:06 0.28411 135.82959 26433 ft 478 kts 351°
2026-05-07 12:07 0.31676 135.82373 26739 ft 478 kts 351°
2026-05-07 12:07 0.34955 135.81784 27041 ft 477 kts 351°
2026-05-07 12:07 0.38238 135.81195 27343 ft 476 kts 350°
2026-05-07 12:07 0.41492 135.80612 27644 ft 475 kts 351°
2026-05-07 12:08 0.44746 135.80028 27939 ft 474 kts 351°
2026-05-07 12:08 0.48027 135.79437 28233 ft 473 kts 351°
2026-05-07 12:08 0.51256 135.78859 28505 ft 473 kts 351°
2026-05-07 12:08 0.54503 135.78276 28775 ft 472 kts 351°
2026-05-07 12:09 0.57756 135.77692 29033 ft 472 kts 350°
2026-05-07 12:09 0.60976 135.77115 29284 ft 471 kts 350°
2026-05-07 12:09 0.64237 135.76529 29542 ft 471 kts 351°
2026-05-07 12:09 0.67457 135.75951 29797 ft 470 kts 350°
2026-05-07 12:10 0.70672 135.75374 30037 ft 470 kts 350°
2026-05-07 12:10 0.73909 135.74794 30268 ft 470 kts 350°
2026-05-07 12:10 0.77122 135.74216 30494 ft 470 kts 350°
2026-05-07 12:10 0.80363 135.73633 30735 ft 469 kts 350°
2026-05-07 12:11 0.83554 135.73061 30978 ft 468 kts 350°
2026-05-07 12:11 0.86773 135.72481 31223 ft 467 kts 350°
2026-05-07 12:11 0.90010 135.71899 31459 ft 466 kts 350°
2026-05-07 12:11 0.93190 135.71329 31669 ft 466 kts 350°
2026-05-07 12:12 0.96418 135.70750 31874 ft 466 kts 350°
2026-05-07 12:12 0.99600 135.70178 32061 ft 467 kts 350°
2026-05-07 12:12 1.02792 135.69606 32210 ft 468 kts 350°
2026-05-07 12:12 1.06044 135.69023 32350 ft 469 kts 350°
2026-05-07 12:13 1.09235 135.68449 32508 ft 470 kts 350°
2026-05-07 12:13 1.12470 135.67870 32679 ft 471 kts 350°
2026-05-07 12:13 1.15722 135.67288 32845 ft 472 kts 350°
2026-05-07 12:13 1.18978 135.66705 33025 ft 472 kts 350°
2026-05-07 12:14 1.22194 135.66128 33212 ft 472 kts 350°
2026-05-07 12:14 1.25469 135.65541 33400 ft 472 kts 350°
2026-05-07 12:14 1.28685 135.64964 33562 ft 473 kts 350°
2026-05-07 12:14 1.31955 135.64378 33730 ft 473 kts 350°
2026-05-07 12:15 1.35041 135.63825 33819 ft 474 kts 350°
2026-05-07 12:15 1.41498 135.62663 33829 ft 473 kts 350°
2026-05-07 12:16 1.47991 135.61497 33831 ft 474 kts 350°
2026-05-07 12:16 1.54494 135.60333 33833 ft 474 kts 350°
2026-05-07 12:17 1.61035 135.59169 33832 ft 474 kts 349°
2026-05-07 12:17 1.67522 135.58009 33832 ft 474 kts 349°
2026-05-07 12:18 1.74049 135.56834 33833 ft 474 kts 349°
2026-05-07 12:18 1.80548 135.55667 33833 ft 473 kts 349°
2026-05-07 12:19 1.87025 135.54501 33833 ft 473 kts 350°
2026-05-07 12:19 1.93523 135.53332 33833 ft 473 kts 350°
2026-05-07 12:20 1.99946 135.52179 33833 ft 473 kts 350°
2026-05-07 12:20 2.06417 135.51021 33835 ft 473 kts 349°
2026-05-07 12:21 2.12903 135.49855 33832 ft 472 kts 349°
2026-05-07 12:21 2.19376 135.48695 33837 ft 471 kts 349°
2026-05-07 12:22 2.25817 135.47536 33835 ft 469 kts 349°
2026-05-07 12:22 2.32283 135.46373 33831 ft 468 kts 349°
2026-05-07 12:23 2.38703 135.45221 33828 ft 469 kts 349°
2026-05-07 12:23 2.45125 135.44066 33821 ft 469 kts 349°
2026-05-07 12:24 2.51595 135.42902 33823 ft 469 kts 349°
2026-05-07 12:24 2.57997 135.41748 33824 ft 469 kts 349°
2026-05-07 12:25 2.64455 135.40587 33831 ft 469 kts 349°
2026-05-07 12:25 2.70875 135.39432 33834 ft 468 kts 349°
2026-05-07 12:26 2.77304 135.38275 33836 ft 468 kts 349°
2026-05-07 12:26 2.83705 135.37123 33835 ft 467 kts 349°
2026-05-07 12:27 2.90137 135.35967 33836 ft 467 kts 349°
2026-05-07 12:27 2.96559 135.34808 33833 ft 467 kts 349°
2026-05-07 12:28 3.02966 135.33624 33834 ft 467 kts 349°
2026-05-07 12:28 3.09335 135.32457 33833 ft 467 kts 349°
2026-05-07 12:29 3.15770 135.31294 33833 ft 466 kts 349°
2026-05-07 12:29 3.22168 135.30142 33832 ft 466 kts 349°
2026-05-07 12:30 3.28567 135.28990 33832 ft 466 kts 349°
2026-05-07 12:30 3.34936 135.27844 33832 ft 466 kts 349°
2026-05-07 12:31 3.41345 135.26688 33832 ft 466 kts 349°
2026-05-07 12:31 3.47761 135.25532 33832 ft 466 kts 349°
2026-05-07 12:32 3.54148 135.24381 33833 ft 469 kts 349°
2026-05-07 12:32 3.60593 135.23219 33832 ft 471 kts 350°
2026-05-07 12:33 3.70319 135.21464 33832 ft 473 kts 350°
2026-05-07 12:33 3.76828 135.20291 33832 ft 473 kts 350°
2026-05-07 12:34 3.83319 135.19121 33832 ft 473 kts 350°
2026-05-07 12:34 3.89817 135.17949 33832 ft 473 kts 350°
2026-05-07 12:35 3.96315 135.16777 33832 ft 473 kts 350°
2026-05-07 12:35 4.02777 135.15610 33831 ft 473 kts 350°
2026-05-07 12:36 4.09288 135.14433 33830 ft 474 kts 350°
2026-05-07 12:36 4.15806 135.13261 33825 ft 474 kts 350°
2026-05-07 12:37 4.22313 135.12091 33817 ft 474 kts 350°
2026-05-07 12:37 4.28839 135.10915 33813 ft 474 kts 350°
2026-05-07 12:38 4.35309 135.09746 33812 ft 473 kts 350°
2026-05-07 12:38 4.41800 135.08574 33813 ft 473 kts 350°
2026-05-07 12:39 4.48309 135.07399 33818 ft 474 kts 350°
2026-05-07 12:39 4.54800 135.06226 33824 ft 474 kts 350°
2026-05-07 12:40 4.61329 135.05045 33829 ft 475 kts 350°
2026-05-07 12:40 4.67854 135.03865 33832 ft 474 kts 350°
2026-05-07 12:41 4.74372 135.02687 33833 ft 474 kts 350°
2026-05-07 12:41 4.80869 135.01511 33832 ft 474 kts 350°
2026-05-07 12:42 4.87378 135.00333 33832 ft 474 kts 350°
2026-05-07 12:42 4.93397 134.99245 33833 ft 475 kts 350°
2026-05-07 12:43 4.99891 134.98070 33829 ft 476 kts 350°
2026-05-07 12:43 5.06407 134.96892 33832 ft 476 kts 350°
2026-05-07 12:44 5.12975 134.95703 33830 ft 475 kts 350°
2026-05-07 12:44 5.19439 134.94536 33828 ft 474 kts 350°
2026-05-07 12:45 5.25918 134.93367 33831 ft 474 kts 350°
2026-05-07 12:45 5.32471 134.92181 33830 ft 475 kts 350°
2026-05-07 12:46 5.38982 134.91000 33832 ft 475 kts 351°
2026-05-07 12:46 5.45472 134.89824 33831 ft 471 kts 351°
2026-05-07 12:47 5.51928 134.88655 33830 ft 471 kts 351°
2026-05-07 12:47 5.58419 134.87479 33830 ft 470 kts 351°
2026-05-07 12:48 5.64889 134.86307 33830 ft 470 kts 351°
2026-05-07 12:48 5.71368 134.85130 33831 ft 470 kts 351°
2026-05-07 12:49 5.77793 134.83963 33830 ft 470 kts 351°
2026-05-07 12:49 5.84267 134.82790 33831 ft 471 kts 351°
2026-05-07 12:50 5.90775 134.81609 33440 ft 472 kts 351°
2026-05-07 12:50 5.93981 134.81027 32863 ft 469 kts 351°
2026-05-07 12:50 5.97186 134.80446 32205 ft 466 kts 350°
2026-05-07 12:51 6.00400 134.79864 31498 ft 465 kts 350°
2026-05-07 12:51 6.03572 134.79291 30732 ft 466 kts 350°
2026-05-07 12:51 6.06772 134.78711 29892 ft 469 kts 349°
2026-05-07 12:51 6.10032 134.78122 29010 ft 472 kts 349°
2026-05-07 12:52 6.13251 134.77537 28143 ft 474 kts 348°
2026-05-07 12:52 6.16523 134.76944 27278 ft 476 kts 349°
2026-05-07 12:52 6.19761 134.76352 26395 ft 478 kts 349°
2026-05-07 12:52 6.23063 134.75749 25506 ft 479 kts 349°
2026-05-07 12:53 6.26318 134.75156 24857 ft 474 kts 349°
2026-05-07 12:53 6.29577 134.74564 24361 ft 470 kts 349°
2026-05-07 12:53 6.32759 134.73984 23839 ft 466 kts 350°
2026-05-07 12:53 6.35933 134.73407 23296 ft 461 kts 350°
2026-05-07 12:54 6.39110 134.72827 22754 ft 456 kts 350°
2026-05-07 12:54 6.42205 134.72264 22217 ft 452 kts 351°
2026-05-07 12:54 6.45275 134.71707 21703 ft 447 kts 351°
2026-05-07 12:54 6.48363 134.71146 21150 ft 443 kts 351°
2026-05-07 12:55 6.51373 134.70599 20585 ft 439 kts 351°
2026-05-07 12:55 6.54367 134.70055 20010 ft 436 kts 351°
2026-05-07 12:55 6.57371 134.69508 19432 ft 432 kts 351°
2026-05-07 12:55 6.60322 134.68971 18862 ft 429 kts 351°
2026-05-07 12:56 6.63252 134.68437 18291 ft 426 kts 351°
2026-05-07 12:56 6.66134 134.67912 17726 ft 423 kts 351°
2026-05-07 12:56 6.69039 134.67383 17149 ft 420 kts 351°
2026-05-07 12:56 6.71901 134.66862 16587 ft 416 kts 351°
2026-05-07 12:57 6.74651 134.66362 16036 ft 413 kts 351°
2026-05-07 12:57 6.77493 134.65845 15473 ft 410 kts 352°
2026-05-07 12:57 6.80186 134.65353 14935 ft 407 kts 351°
2026-05-07 12:57 6.82909 134.64857 14384 ft 404 kts 351°
2026-05-07 12:58 6.85405 134.64403 13880 ft 401 kts 352°
2026-05-07 12:58 6.88073 134.63917 13334 ft 398 kts 351°
2026-05-07 12:58 6.90801 134.63419 12785 ft 395 kts 352°
2026-05-07 12:58 6.93451 134.62936 12247 ft 392 kts 352°
2026-05-07 12:59 6.96126 134.62450 11699 ft 389 kts 352°
2026-05-07 12:59 6.98803 134.61961 11148 ft 386 kts 351°
2026-05-07 12:59 7.01433 134.61482 10646 ft 381 kts 351°
2026-05-07 12:59 7.03997 134.61014 10460 ft 366 kts 351°
2026-05-07 13:00 7.06460 134.60562 10306 ft 352 kts 352°
2026-05-07 13:00 7.08837 134.60127 10171 ft 337 kts 352°
2026-05-07 13:00 7.11093 134.59714 10062 ft 323 kts 352°
2026-05-07 13:00 7.13266 134.59320 9968 ft 309 kts 352°
2026-05-07 13:01 7.15350 134.58942 9893 ft 296 kts 352°
2026-05-07 13:01 7.17350 134.58578 9639 ft 290 kts 352°
2026-05-07 13:01 7.19360 134.58214 9298 ft 288 kts 352°
2026-05-07 13:01 7.21320 134.57858 8972 ft 286 kts 352°
2026-05-07 13:02 7.23270 134.57503 8650 ft 284 kts 352°
2026-05-07 13:02 7.25213 134.57149 8322 ft 280 kts 353°
2026-05-07 13:02 7.27145 134.56796 8013 ft 278 kts 353°
2026-05-07 13:02 7.29033 134.56455 7695 ft 277 kts 352°
2026-05-07 13:03 7.30800 134.56130 7411 ft 275 kts 353°
2026-05-07 13:03 7.32689 134.55782 7090 ft 272 kts 353°
2026-05-07 13:03 7.34552 134.55444 6780 ft 272 kts 352°
2026-05-07 13:03 7.36353 134.54828 6448 ft 275 kts 329°
2026-05-07 13:04 7.37661 134.53427 6134 ft 280 kts 300°
2026-05-07 13:04 7.38453 134.51648 5842 ft 279 kts 295°
2026-05-07 13:04 7.39194 134.49855 5539 ft 278 kts 295°
2026-05-07 13:04 7.39940 134.48079 5243 ft 276 kts 295°
2026-05-07 13:05 7.40698 134.46309 4947 ft 275 kts 296°
2026-05-07 13:05 7.41459 134.44556 4655 ft 273 kts 296°
2026-05-07 13:05 7.42223 134.42804 4362 ft 272 kts 296°
2026-05-07 13:05 7.42988 134.41051 4070 ft 271 kts 296°
2026-05-07 13:06 7.43676 134.39308 3766 ft 272 kts 285°
2026-05-07 13:06 7.43605 134.37408 3455 ft 274 kts 250°
2026-05-07 13:06 7.42578 134.35840 3157 ft 270 kts 218°
2026-05-07 13:06 7.40943 134.35001 2976 ft 256 kts 187°
2026-05-07 13:07 7.39256 134.34943 2924 ft 236 kts 162°
2026-05-07 13:07 7.37872 134.35663 2861 ft 212 kts 129°
2026-05-07 13:07 7.37163 134.36848 2802 ft 194 kts 101°
2026-05-07 13:07 7.37054 134.38167 2850 ft 182 kts 88°
2026-05-07 13:08 7.37055 134.39404 2720 ft 170 kts 88°
2026-05-07 13:08 7.37046 134.40533 2571 ft 155 kts 88°
2026-05-07 13:08 7.37029 134.41571 2435 ft 139 kts 88°
2026-05-07 13:08 7.37011 134.42509 2302 ft 131 kts 88°
2026-05-07 13:09 7.36994 134.43425 2090 ft 130 kts 88°
2026-05-07 13:09 7.36977 134.44338 1918 ft 130 kts 88°
2026-05-07 13:09 7.36959 134.45203 1752 ft 129 kts 88°
2026-05-07 13:09 7.36939 134.46115 1584 ft 130 kts 88°
2026-05-07 13:10 7.36918 134.47026 1417 ft 131 kts 88°
2026-05-07 13:10 7.36899 134.47935 1244 ft 132 kts 89°
2026-05-07 13:10 7.36878 134.48868 1069 ft 133 kts 89°
2026-05-07 13:10 7.36860 134.49710 909 ft 133 kts 89°
2026-05-07 13:11 7.36822 134.50656 751 ft 134 kts 91°
2026-05-07 13:11 7.36787 134.51587 568 ft 135 kts 89°
2026-05-07 13:11 7.36780 134.52528 384 ft 135 kts 89°
2026-05-07 13:11 7.36752 134.53481 211 ft 136 kts 90°
2026-05-07 13:12 7.36733 134.54338 166 ft 88 kts 90°
2026-05-07 13:12 7.36724 134.54768 165 ft 52 kts 92°
2026-05-07 13:12 7.36716 134.55041 167 ft 30 kts 90°
2026-05-07 13:12 7.36711 134.55238 166 ft 23 kts 98°
2026-05-07 13:13 7.36674 134.55373 163 ft 13 kts 73°
2026-05-07 13:13 7.36711 134.55341 164 ft 11 kts 270°
2026-05-07 13:13 7.36712 134.55223 166 ft 23 kts 271°
2026-05-07 13:13 7.36716 134.55051 167 ft 25 kts 271°
2026-05-07 13:14 7.36721 134.54869 167 ft 25 kts 271°
2026-05-07 13:14 7.36725 134.54698 164 ft 25 kts 272°
2026-05-07 13:14 7.36729 134.54504 164 ft 31 kts 272°
2026-05-07 13:14 7.36735 134.54272 168 ft 32 kts 271°
2026-05-07 13:15 7.36739 134.54059 173 ft 28 kts 271°
2026-05-07 13:15 7.36743 134.53868 178 ft 22 kts 271°
2026-05-07 13:15 7.36770 134.53775 180 ft 13 kts 331°
2026-05-07 13:15 7.36847 134.53752 180 ft 7 kts 312°
2026-05-07 13:16 7.36897 134.53743 179 ft 8 kts
2026-05-07 13:16 7.36930 134.53743 179 ft 2 kts 359°
2026-05-07 13:16 7.36934 134.53743 180 ft 0 kts 359°
2026-05-07 13:17 7.36936 134.53743 179 ft 0 kts 359°